When you browse on this site, cookies collect data to enhance your experience and personalize the content and advertising you see.
Visit our Privacy Policy to learn more. By continuing to use the site, you agree to this use of cookies and data.
  • In Portugal
  • List of Countries
  • For 7 days
  • Water Temperature
  • Satellite Maps
  • Weather Map
  • Weather Widgets
  • user-avatar
    Login

    Hourly Weather Banbridge

    Today, 18 July, Thursday

    Time Temperature Precipitation Wind Pressure Humidity
    00:00 +10°C° 0 mm 2 mps 748 mmHg 96%
    01:00 +10°C° 0 mm 3 mps 747 mmHg 96%
    02:00 +10°C° 0 mm 3 mps 747 mmHg 96%
    03:00 +10°C° 0 mm 3 mps 747 mmHg 96%
    04:00 +10°C° 0 mm 3 mps 747 mmHg 96%
    05:00 +11°C° 0 mm 3 mps 747 mmHg 95%
    06:00 +12°C° 0 mm 3 mps 747 mmHg 97%
    07:00 +13°C° 0 mm 4 mps 747 mmHg 92%
    08:00 +14°C° 0 mm 4 mps 748 mmHg 87%
    09:00 +15°C° 0 mm 5 mps 748 mmHg 82%
    10:00 +16°C° 0.2 mm 5 mps 748 mmHg 80%
    11:00 +16°C° 0.2 mm 5 mps 747 mmHg 78%
    12:00 +17°C° 0.2 mm 6 mps 747 mmHg 76%
    13:00 +17°C° 0.3 mm 6 mps 748 mmHg 76%
    14:00 +17°C° 0.3 mm 6 mps 748 mmHg 76%
    15:00 +19°C° 0.3 mm 6 mps 748 mmHg 76%
    16:00 +17°C° 0.4 mm 5 mps 748 mmHg 80%
    17:00 +16°C° 0.4 mm 5 mps 748 mmHg 83%
    18:00 +17°C° 0.4 mm 4 mps 747 mmHg 86%
    19:00 +15°C° 0.1 mm 4 mps 748 mmHg 89%
    20:00 +14°C° 0.1 mm 3 mps 748 mmHg 91%
    21:00 +13°C° 0.1 mm 3 mps 748 mmHg 93%
    22:00 +13°C° 0 mm 2 mps 748 mmHg 94%
    23:00 +13°C° 0 mm 2 mps 748 mmHg 95%

    Tomorrow, 19 July, Friday

    Time Temperature Precipitation Wind Pressure Humidity
    00:00 +12°C° 0 mm 2 mps 748 mmHg 96%
    01:00 +10°C° 0 mm 2 mps 748 mmHg 96%
    02:00 +10°C° 0 mm 2 mps 748 mmHg 96%
    03:00 +10°C° 0 mm 2 mps 747 mmHg 96%
    04:00 +10°C° 0 mm 2 mps 747 mmHg 95%
    05:00 +12°C° 0 mm 2 mps 747 mmHg 94%
    06:00 +12°C° 0 mm 1 mps 746 mmHg 93%
    07:00 +13°C° 1.2 mm 2 mps 746 mmHg 95%
    08:00 +13°C° 1.2 mm 2 mps 745 mmHg 96%
    09:00 +13°C° 1.2 mm 2 mps 745 mmHg 97%
    10:00 +12°C° 3.3 mm 3 mps 745 mmHg 98%
    11:00 +13°C° 3.3 mm 3 mps 744 mmHg 98%
    12:00 +13°C° 3.3 mm 4 mps 744 mmHg 98%
    13:00 +14°C° 0.4 mm 3 mps 744 mmHg 97%
    14:00 +15°C° 0.4 mm 2 mps 743 mmHg 96%
    15:00 +16°C° 0.4 mm 2 mps 743 mmHg 95%
    16:00 +16°C° 0 mm 2 mps 743 mmHg 93%
    17:00 +17°C° 0 mm 3 mps 743 mmHg 91%
    18:00 +17°C° 0 mm 3 mps 742 mmHg 88%
    19:00 +16°C° 0 mm 3 mps 743 mmHg 91%
    20:00 +15°C° 0 mm 2 mps 743 mmHg 93%
    21:00 +14°C° 0 mm 1 mps 743 mmHg 96%
    22:00 +14°C° 0.2 mm 1 mps 743 mmHg 96%
    23:00 +13°C° 0.2 mm 1 mps 743 mmHg 96%

    Day after tomorrow, 20 July, Saturday

    Time Temperature Precipitation Wind Pressure Humidity
    00:00 +13°C° 0.2 mm 1 mps 743 mmHg 96%
    01:00 +13°C° 0.2 mm 1 mps 743 mmHg 97%
    02:00 +13°C° 0.2 mm 1 mps 743 mmHg 97%
    03:00 +13°C° 0.2 mm 1 mps 744 mmHg 97%
    04:00 +13°C° 0.3 mm 1 mps 744 mmHg 97%
    05:00 +13°C° 0.3 mm 1 mps 744 mmHg 98%
    06:00 +13°C° 0.3 mm 1 mps 744 mmHg 98%
    07:00 +14°C° 0 mm 2 mps 745 mmHg 94%
    08:00 +15°C° 0 mm 2 mps 746 mmHg 91%
    09:00 +16°C° 0 mm 2 mps 746 mmHg 87%
    10:00 +17°C° 0.1 mm 2 mps 747 mmHg 82%
    11:00 +18°C° 0.1 mm 3 mps 747 mmHg 76%
    12:00 +19°C° 0.1 mm 3 mps 748 mmHg 71%
    13:00 +19°C° 0.1 mm 3 mps 748 mmHg 70%
    14:00 +19°C° 0.1 mm 3 mps 749 mmHg 70%
    15:00 +19°C° 0.1 mm 3 mps 749 mmHg 69%
    16:00 +19°C° 0.1 mm 3 mps 750 mmHg 71%
    17:00 +19°C° 0.1 mm 3 mps 750 mmHg 74%
    18:00 +18°C° 0.1 mm 2 mps 750 mmHg 76%
    19:00 +17°C° 0 mm 2 mps 751 mmHg 79%
    20:00 +15°C° 0 mm 2 mps 752 mmHg 82%
    21:00 +14°C° 0 mm 1 mps 752 mmHg 85%
    22:00 +13°C° 0 mm 1 mps 752 mmHg 86%
    23:00 +12°C° 0 mm 1 mps 753 mmHg 87%

    21 July, Sunday

    Time Temperature Precipitation Wind Pressure Humidity
    00:00 +12°C° 0 mm 1 mps 753 mmHg 88%
    01:00 +12°C° 0 mm 1 mps 753 mmHg 87%
    02:00 +12°C° 0 mm 1 mps 753 mmHg 86%
    03:00 +12°C° 0 mm 1 mps 753 mmHg 85%
    04:00 +12°C° 0 mm 2 mps 753 mmHg 86%
    05:00 +13°C° 0 mm 2 mps 753 mmHg 87%
    06:00 +13°C° 0 mm 2 mps 753 mmHg 88%
    07:00 +12°C° 0.1 mm 3 mps 753 mmHg 89%
    08:00 +13°C° 0.1 mm 3 mps 753 mmHg 90%
    09:00 +13°C° 0.1 mm 3 mps 754 mmHg 91%
    10:00 +14°C° 0.1 mm 4 mps 754 mmHg 89%
    11:00 +15°C° 0.1 mm 5 mps 753 mmHg 87%
    12:00 +16°C° 0.1 mm 5 mps 753 mmHg 85%
    13:00 +17°C° 0.3 mm 6 mps 753 mmHg 85%
    14:00 +20°C° 0.3 mm 6 mps 754 mmHg 85%
    15:00 +21°C° 0.3 mm 6 mps 754 mmHg 85%
    16:00 +20°C° 0.9 mm 6 mps 753 mmHg 87%
    17:00 +20°C° 0.9 mm 5 mps 753 mmHg 90%
    18:00 +19°C° 0.9 mm 5 mps 753 mmHg 92%
    19:00 +17°C° 0.3 mm 5 mps 753 mmHg 92%
    20:00 +17°C° 0.3 mm 6 mps 752 mmHg 93%
    21:00 +16°C° 0.3 mm 6 mps 752 mmHg 94%
    22:00 +16°C° 0.2 mm 6 mps 752 mmHg 93%
    23:00 +16°C° 0.2 mm 6 mps 752 mmHg 93%

    22 July, Monday

    Time Temperature Precipitation Wind Pressure Humidity
    00:00 +16°C° 0.2 mm 6 mps 751 mmHg 93%
    01:00 +16°C° 0 mm 6 mps 751 mmHg 92%
    02:00 +16°C° 0 mm 6 mps 751 mmHg 92%
    03:00 +17°C° 0 mm 6 mps 751 mmHg 91%
    04:00 +17°C° 0 mm 6 mps 751 mmHg 91%
    05:00 +17°C° 0 mm 6 mps 752 mmHg 90%
    06:00 +17°C° 0 mm 6 mps 752 mmHg 89%
    07:00 +19°C° 0 mm 6 mps 752 mmHg 87%
    08:00 +20°C° 0 mm 7 mps 752 mmHg 85%
    09:00 +21°C° 0 mm 7 mps 753 mmHg 83%
    10:00 +21°C° 0 mm 7 mps 753 mmHg 81%
    11:00 +22°C° 0 mm 7 mps 753 mmHg 78%
    12:00 +23°C° 0 mm 8 mps 753 mmHg 76%
    13:00 +23°C° 0 mm 8 mps 753 mmHg 77%
    14:00 +23°C° 0 mm 8 mps 753 mmHg 77%
    15:00 +23°C° 0 mm 8 mps 753 mmHg 78%
    16:00 +22°C° 0 mm 7 mps 753 mmHg 80%
    17:00 +22°C° 0 mm 7 mps 753 mmHg 81%
    18:00 +21°C° 0 mm 7 mps 753 mmHg 83%
    19:00 +20°C° 0 mm 6 mps 754 mmHg 85%
    20:00 +19°C° 0 mm 5 mps 754 mmHg 87%
    21:00 +17°C° 0 mm 5 mps 754 mmHg 89%
    22:00 +18°C° 0 mm 4 mps 754 mmHg 90%
    23:00 +17°C° 0 mm 4 mps 754 mmHg 91%

    23 July, Tuesday

    Time Temperature Precipitation Wind Pressure Humidity
    00:00 +17°C° 0 mm 4 mps 754 mmHg 92%
    01:00 +15°C° 0 mm 4 mps 754 mmHg 94%
    02:00 +16°C° 0 mm 3 mps 753 mmHg 96%
    03:00 +14°C° 0 mm 3 mps 753 mmHg 97%
    04:00 +14°C° 0 mm 3 mps 753 mmHg 97%
    05:00 +14°C° 0 mm 3 mps 753 mmHg 96%
    06:00 +16°C° 0 mm 2 mps 753 mmHg 95%
    07:00 +17°C° 0 mm 3 mps 753 mmHg 89%
    08:00 +18°C° 0 mm 3 mps 753 mmHg 84%
    09:00 +20°C° 0 mm 4 mps 753 mmHg 78%
    10:00 +20°C° 0 mm 4 mps 752 mmHg 76%
    11:00 +21°C° 0 mm 4 mps 752 mmHg 74%
    12:00 +22°C° 0 mm 4 mps 752 mmHg 72%
    13:00 +22°C° 0 mm 4 mps 752 mmHg 72%
    14:00 +22°C° 0 mm 4 mps 751 mmHg 71%
    15:00 +23°C° 0 mm 4 mps 751 mmHg 71%
    16:00 +22°C° 0 mm 3 mps 750 mmHg 73%
    17:00 +22°C° 0 mm 3 mps 750 mmHg 75%
    18:00 +23°C° 0 mm 2 mps 750 mmHg 77%
    19:00 +21°C° 0 mm 2 mps 750 mmHg 80%
    20:00 +20°C° 0 mm 1 mps 750 mmHg 84%
    21:00 +19°C° 0 mm 1 mps 750 mmHg 88%
    22:00 +18°C° 0 mm 1 mps 750 mmHg 88%
    23:00 +18°C° 0 mm 1 mps 750 mmHg 89%
    Show more